M I D A S
Marine Information and Data Acquisition System
Tripno 655 of the Zeeleeuw from 2004-02-25 07:30:40 to 2004-02-25 11:38:24
Back to CruiseResearch ActivitiesStationsMapUnderway DataData graphs

EquipmentUnitsComments
TimeDGPSUTC
LatitudeDGPSDM.mWGS84
LongitudeDGPSDM.mWGS84
SpeedMeteo Stationm/sRelative wind speed
DirectionMeteo StationdegRelative wind direction
TemperatureMeteo Stationdeg CelciusAir temperature
PressureMeteo StationPaAtmospheric pressure
HumidityMeteo Station%Relative humidity
Missing or incorrect values are displayed as -999
Metereological data collected by the RV Zeeleeuw from 2004-02-25 07:30:40 to 2004-02-25 11:38:24
                                                                                    Next 1000 lines
Time Latitude Longitude Speed Direction Temperature Pressure Humidity
2004-02-25 07:30:48 51°13.593 2°56.107 5 200 3.7 100870 70
2004-02-25 07:30:54 51°13.593 2°56.106 8.1 202 3.7 100860 70
2004-02-25 07:30:59 51°13.594 2°56.104 7.4 200 3.7 100860 70
2004-02-25 07:31:04 51°13.594 2°56.101 6.7 195 3.6 100870 70
2004-02-25 07:31:08 51°13.595 2°56.098 9.4 200 3.6 100870 70
2004-02-25 07:31:14 51°13.597 2°56.093 6.9 197 3.6 100860 70
2004-02-25 07:31:20 51°13.598 2°56.087 7.7 200 3.6 100860 70
2004-02-25 07:31:24 51°13.6 2°56.083 7.6 200 3.6 100870 70
2004-02-25 07:31:30 51°13.602 2°56.076 7.5 207 3.6 100870 70
2004-02-25 07:31:34 51°13.603 2°56.071 8.5 195 3.6 100870 70
2004-02-25 07:31:40 51°13.606 2°56.063 6.8 202 3.6 100870 70
2004-02-25 07:31:44 51°13.608 2°56.057 8.9 205 3.7 100870 70
2004-02-25 07:31:50 51°13.61 2°56.048 8.8 204 3.7 100870 70
2004-02-25 07:31:54 51°13.612 2°56.042 7.1 198 3.7 100870 70
2004-02-25 07:32:00 51°13.616 2°56.032 6.8 203 3.7 100870 70
2004-02-25 07:32:04 51°13.618 2°56.026 8.7 213 3.7 100870 70
2004-02-25 07:32:10 51°13.622 2°56.016 7.8 201 3.7 100870 70
2004-02-25 07:32:14 51°13.624 2°56.009 6.6 204 3.7 100870 70
2004-02-25 07:32:20 51°13.628 2°55.999 8.5 209 3.7 100870 70
2004-02-25 07:32:24 51°13.631 2°55.992 8.4 195 3.7 100870 71
2004-02-25 07:32:30 51°13.635 2°55.982 7.6 196 3.7 100870 71
2004-02-25 07:32:34 51°13.638 2°55.975 8.4 212 3.7 100870 70
2004-02-25 07:32:40 51°13.642 2°55.964 5.4 187 3.7 100870 70
2004-02-25 07:32:44 51°13.645 2°55.956 8.8 196 3.7 100870 70
2004-02-25 07:32:50 51°13.648 2°55.945 8.6 207 3.7 100870 70
2004-02-25 07:32:55 51°13.652 2°55.936 7.8 202 3.7 100870 70
2004-02-25 07:33:00 51°13.655 2°55.926 11 209 3.7 100870 70
2004-02-25 07:33:04 51°13.657 2°55.918 9.3 214 3.7 100870 70
2004-02-25 07:33:10 51°13.661 2°55.907 7.8 217 3.7 100870 70
2004-02-25 07:33:14 51°13.663 2°55.899 8.7 207 3.7 100870 70
2004-02-25 07:33:20 51°13.667 2°55.887 10.3 208 3.7 100870 70
2004-02-25 07:33:24 51°13.669 2°55.878 9.2 215 3.7 100870 70
2004-02-25 07:33:30 51°13.672 2°55.866 11.2 214 3.7 100870 70
2004-02-25 07:33:34 51°13.674 2°55.858 11.6 210 3.7 100870 70
2004-02-25 07:33:40 51°13.677 2°55.846 10.4 214 3.7 100870 70
2004-02-25 07:33:44 51°13.679 2°55.838 11 219 3.7 100880 70
2004-02-25 07:33:50 51°13.681 2°55.825 10.6 230 3.7 100880 70
2004-02-25 07:33:55 51°13.683 2°55.815 11.6 224 3.7 100880 69
2004-02-25 07:34:00 51°13.685 2°55.805 8.9 230 3.7 100880 69
2004-02-25 07:34:04 51°13.686 2°55.796 10.2 220 3.6 100870 69
2004-02-25 07:34:10 51°13.688 2°55.784 9 226 3.6 100870 69
2004-02-25 07:34:15 51°13.689 2°55.773 11.2 226 3.6 100870 69
2004-02-25 07:34:20 51°13.69 2°55.764 8.6 224 3.6 100870 69
2004-02-25 07:34:24 51°13.69 2°55.757 7.9 224 3.6 100880 69
2004-02-25 07:34:30 51°13.691 2°55.751 6.9 247 3.6 100880 69
2004-02-25 07:34:35 51°13.691 2°55.749 5.7 246 3.6 100870 69
2004-02-25 07:34:38 51°13.691 2°55.749 5.2 248 3.6 100870 69
2004-02-25 07:34:44 51°13.692 2°55.751 5 245 3.6 100870 69
2004-02-25 07:34:48 51°13.692 2°55.753 7.3 265 3.6 100870 69
2004-02-25 07:34:54 51°13.694 2°55.756 6.2 291 3.6 100870 69
2004-02-25 07:35:00 51°13.697 2°55.76 9.5 304 3.6 100870 69
2004-02-25 07:35:04 51°13.7 2°55.762 7.1 314 3.6 100880 69
2004-02-25 07:35:10 51°13.704 2°55.765 7.4 313 3.6 100880 69
2004-02-25 07:35:14 51°13.706 2°55.767 8.4 308 3.6 100860 69
2004-02-25 07:35:18 51°13.709 2°55.768 6.6 308 3.6 100860 69
2004-02-25 07:35:24 51°13.71 2°55.769 8 318 3.5 100850 69
2004-02-25 07:35:28 51°13.711 2°55.77 7.1 324 3.5 100850 69
2004-02-25 07:35:34 51°13.71 2°55.769 6.4 320 3.5 100860 69
2004-02-25 07:35:39 51°13.709 2°55.769 8.9 320 3.5 100860 69
2004-02-25 07:35:44 51°13.707 2°55.768 7.1 311 3.6 100860 69
2004-02-25 07:35:48 51°13.705 2°55.767 8.4 308 3.6 100860 69
2004-02-25 07:35:55 51°13.7 2°55.765 8.5 308 3.5 100850 69
2004-02-25 07:36:00 51°13.696 2°55.763 6 303 3.5 100850 69
2004-02-25 07:36:04 51°13.694 2°55.762 6.1 304 3.5 100850 69
2004-02-25 07:36:10 51°13.69 2°55.761 7.2 308 3.5 100850 69
2004-02-25 07:36:14 51°13.689 2°55.76 6.9 234 3.5 100850 69
2004-02-25 07:36:20 51°13.69 2°55.76 7.5 328 3.5 100850 69
2004-02-25 07:36:24 51°13.692 2°55.759 9.2 340 3.5 100860 69
2004-02-25 07:36:30 51°13.696 2°55.758 8.9 337 3.5 100860 69
2004-02-25 07:36:34 51°13.698 2°55.756 8 355 3.5 100850 69
2004-02-25 07:36:39 51°13.701 2°55.754 9 357 3.5 100850 69
2004-02-25 07:36:44 51°13.705 2°55.751 7.8 7 3.5 100850 69
2004-02-25 07:36:50 51°13.709 2°55.747 9.6 10 3.5 100850 69
2004-02-25 07:36:54 51°13.713 2°55.744 8.5 356 3.5 100840 69
2004-02-25 07:36:59 51°13.717 2°55.739 7.3 359 3.5 100840 69
2004-02-25 07:37:04 51°13.722 2°55.734 8.1 7 3.6 100840 69
2004-02-25 07:37:08 51°13.727 2°55.73 9.3 1 3.6 100840 69
2004-02-25 07:37:14 51°13.733 2°55.723 9.9 9 3.5 100840 69
2004-02-25 07:37:19 51°13.739 2°55.716 9.6 359 3.5 100840 69
2004-02-25 07:37:24 51°13.746 2°55.71 8.4 12 3.5 100840 69
2004-02-25 07:37:28 51°13.751 2°55.704 9.9 18 3.5 100840 69
2004-02-25 07:37:34 51°13.759 2°55.695 7.2 357 3.5 100850 69
2004-02-25 07:37:39 51°13.766 2°55.688 9.3 8 3.5 100850 69
2004-02-25 07:37:44 51°13.773 2°55.68 9.4 16 3.6 100850 70
2004-02-25 07:37:48 51°13.779 2°55.674 8.4 2 3.6 100850 70
2004-02-25 07:37:54 51°13.788 2°55.665 10.2   3.6 100840 70
2004-02-25 07:37:58 51°13.795 2°55.659 8.9 9 3.6 100840 70
2004-02-25 07:38:04 51°13.805 2°55.652 12.1 7 3.6 100840 70
2004-02-25 07:38:08 51°13.812 2°55.646 7.4 356 3.6 100840 70
2004-02-25 07:38:14 51°13.822 2°55.638 12 7 3.6 100840 70
2004-02-25 07:38:18 51°13.829 2°55.633 12.8 1 3.6 100840 70
2004-02-25 07:38:24 51°13.84 2°55.624 9.9 1 3.6 100840 70
2004-02-25 07:38:28 51°13.847 2°55.619 11.7 2 3.6 100840 70
2004-02-25 07:38:34 51°13.858 2°55.611 12.2 349 3.6 100830 70
2004-02-25 07:38:38 51°13.865 2°55.605 11.4 352 3.6 100830 70
2004-02-25 07:38:44 51°13.876 2°55.597 9.9 350 3.5 100840 69
2004-02-25 07:38:48 51°13.884 2°55.592 10.3 353 3.5 100840 69
2004-02-25 07:38:54 51°13.895 2°55.584 8.8 346 3.6 100830 69
2004-02-25 07:38:59 51°13.905 2°55.579 8.7 5 3.6 100830 69
2004-02-25 07:39:04 51°13.914 2°55.573 10.3 359 3.6 100830 69
2004-02-25 07:39:10 51°13.926 2°55.565 10.6 360 3.6 100830 69
2004-02-25 07:39:14 51°13.934 2°55.559 10.9 350 3.5 100830 70
2004-02-25 07:39:18 51°13.941 2°55.554 10.3 352 3.5 100830 70
2004-02-25 07:39:24 51°13.953 2°55.546 11 5 3.5 100840 70
2004-02-25 07:39:28 51°13.961 2°55.541 10.9 360 3.5 100840 70
2004-02-25 07:39:34 51°13.972 2°55.533 11.3 358 3.6 100840 70
2004-02-25 07:39:38 51°13.98 2°55.527 13.3 356 3.6 100840 70
2004-02-25 07:39:44 51°13.992 2°55.519 12.1 4 3.6 100840 71
2004-02-25 07:39:49 51°14.002 2°55.513 10.8 1 3.6 100840 71
2004-02-25 07:39:54 51°14.011 2°55.506 12.4 1 3.6 100840 71
2004-02-25 07:39:59 51°14.021 2°55.5 11.7 357 3.6 100840 71
2004-02-25 07:40:04 51°14.031 2°55.493 12.3 357 3.6 100830 71
2004-02-25 07:40:09 51°14.04 2°55.486 11.9 355 3.6 100830 71
2004-02-25 07:40:14 51°14.05 2°55.479 11.7 3 3.6 100830 71
2004-02-25 07:40:19 51°14.06 2°55.473 12.4 1 3.6 100830 71
2004-02-25 07:40:24 51°14.069 2°55.465 13 2 3.6 100840 71
2004-02-25 07:40:28 51°14.077 2°55.459 13.6 1 3.6 100840 71
2004-02-25 07:40:34 51°14.088 2°55.45 12.3 1 3.6 100830 71
2004-02-25 07:40:39 51°14.099 2°55.442 14.4 359 3.6 100830 71
2004-02-25 07:40:44 51°14.109 2°55.434 13.6 355 3.6 100830 71
2004-02-25 07:40:50 51°14.123 2°55.422 13.9 358 3.6 100830 71
2004-02-25 07:40:54 51°14.132 2°55.415 13.5 360 3.6 100830 72
2004-02-25 07:40:58 51°14.141 2°55.407 13.6 358 3.6 100830 72
2004-02-25 07:41:04 51°14.155 2°55.394 14.3 2 3.6 100830 72
2004-02-25 07:41:10 51°14.17 2°55.379 13.7 2 3.6 100830 72
2004-02-25 07:41:14 51°14.179 2°55.37 14 360 3.6 100820 72
2004-02-25 07:41:18 51°14.189 2°55.359 14.2 8 3.6 100820 72
2004-02-25 07:41:24 51°14.203 2°55.342 15.2 8 3.6 100810 72
2004-02-25 07:41:29 51°14.215 2°55.327 15.7 7 3.6 100810 72
2004-02-25 07:41:34 51°14.226 2°55.312 16.7 8 3.6 100820 72
2004-02-25 07:41:38 51°14.235 2°55.299 15.7 7 3.6 100820 72
2004-02-25 07:41:44 51°14.248 2°55.278 15.9 10 3.6 100820 72
2004-02-25 07:41:50 51°14.261 2°55.257 16.1 6 3.6 100820 72
2004-02-25 07:41:54 51°14.269 2°55.243 16.4 4 3.6 100820 72
2004-02-25 07:42:00 51°14.282 2°55.22 15 7 3.6 100820 72
2004-02-25 07:42:04 51°14.29 2°55.205 15.8 6 3.6 100820 72
2004-02-25 07:42:10 51°14.303 2°55.181 16.1 8 3.6 100820 72
2004-02-25 07:42:14 51°14.311 2°55.165 15.3 7 3.6 100820 71
2004-02-25 07:42:19 51°14.321 2°55.145 15.2 6 3.6 100820 71
2004-02-25 07:42:24 51°14.332 2°55.124 14.6 7 3.6 100820 71
2004-02-25 07:42:30 51°14.344 2°55.1 16.2 7 3.6 100820 71
2004-02-25 07:42:34 51°14.353 2°55.084 16.5 11 3.5 100820 71
2004-02-25 07:42:38 51°14.361 2°55.068 14.7 10 3.5 100820 71
2004-02-25 07:42:44 51°14.374 2°55.042 16 11 3.5 100820 71
2004-02-25 07:42:50 51°14.385 2°55.016 16.2 14 3.5 100820 71
2004-02-25 07:42:54 51°14.391 2°54.997 17.3 18 3.5 100810 71
2004-02-25 07:42:59 51°14.397 2°54.972 15.8 26 3.5 100810 71
2004-02-25 07:43:04 51°14.402 2°54.946 16.2 24 3.5 100820 71
2004-02-25 07:43:09 51°14.404 2°54.92 13.9 25 3.5 100820 71
2004-02-25 07:43:14 51°14.406 2°54.894 15.7 31 3.5 100800 71
2004-02-25 07:43:18 51°14.407 2°54.873 15.4 35 3.5 100800 71
2004-02-25 07:43:24 51°14.407 2°54.844 14.6 37 3.5 100790 71
2004-02-25 07:43:28 51°14.407 2°54.825 14.4 34 3.5 100790 71
2004-02-25 07:43:34 51°14.406 2°54.797 13.3 37 3.5 100800 72
2004-02-25 07:43:39 51°14.405 2°54.775 14.8 37 3.5 100800 72
2004-02-25 07:43:44 51°14.404 2°54.752 13.3 40 3.5 100810 71
2004-02-25 07:43:48 51°14.403 2°54.735 13.1 42 3.5 100810 71
2004-02-25 07:43:54 51°14.401 2°54.709 12.4 42 3.5 100800 71
2004-02-25 07:43:58 51°14.399 2°54.692 14.3 42 3.5 100800 71
2004-02-25 07:44:04 51°14.398 2°54.667 12.7 32 3.5 100810 71
2004-02-25 07:44:09 51°14.396 2°54.647 14.1 41 3.5 100810 71
2004-02-25 07:44:14 51°14.394 2°54.626 14 28 3.5 100810 72
2004-02-25 07:44:19 51°14.393 2°54.606 13 36 3.5 100810 72
2004-02-25 07:44:24 51°14.392 2°54.586 14.8 37 3.6 100810 72
2004-02-25 07:44:28 51°14.391 2°54.57 12.1 36 3.6 100810 72
2004-02-25 07:44:34 51°14.39 2°54.546 12.3 37 3.6 100820 72
2004-02-25 07:44:38 51°14.389 2°54.531 13.2 32 3.6 100820 72
2004-02-25 07:44:44 51°14.388 2°54.507 12.7 34 3.6 100810 72
2004-02-25 07:44:48 51°14.386 2°54.491 12.3 38 3.6 100810 72
2004-02-25 07:44:54 51°14.385 2°54.466 12.1 43 3.6 100820 72
2004-02-25 07:44:59 51°14.382 2°54.444 13.3 43 3.6 100820 72
2004-02-25 07:45:04 51°14.379 2°54.422 13.2 48 3.6 100820 73
2004-02-25 07:45:09 51°14.374 2°54.399 13.1 44 3.6 100820 73
2004-02-25 07:45:14 51°14.368 2°54.375 12.6 54 3.6 100810 72
2004-02-25 07:45:19 51°14.361 2°54.352 13.9 50 3.6 100810 72
2004-02-25 07:45:24 51°14.354 2°54.327 14 52 3.6 100790 72
2004-02-25 07:45:28 51°14.347 2°54.307 15.3 55 3.6 100790 72
2004-02-25 07:45:34 51°14.338 2°54.276 14.3 57 3.6 100780 72
2004-02-25 07:45:39 51°14.328 2°54.251 15.6 59 3.6 100780 72
2004-02-25 07:45:44 51°14.32 2°54.223 15.2 57 3.6 100790 72
2004-02-25 07:45:48 51°14.312 2°54.203 15.3 57 3.6 100790 72
2004-02-25 07:45:54 51°14.3 2°54.17 15.8 57 3.5 100780 72
2004-02-25 07:45:59 51°14.291 2°54.143 13.1 51 3.5 100780 72
2004-02-25 07:46:04 51°14.282 2°54.116 13.6 52 3.5 100760 71
2004-02-25 07:46:08 51°14.274 2°54.094 15.5 48 3.5 100760 71
2004-02-25 07:46:14 51°14.263 2°54.061 14.9 51 3.5 100760 71
2004-02-25 07:46:19 51°14.253 2°54.034 15.1 54 3.5 100760 71
2004-02-25 07:46:24 51°14.244 2°54.006 14.1 55 3.5 100760 71
2004-02-25 07:46:29 51°14.234 2°53.979 14.3 54 3.5 100760 71
2004-02-25 07:46:34 51°14.224 2°53.951 13.8 53 3.5 100770 72
2004-02-25 07:46:39 51°14.214 2°53.924 14.2 58 3.5 100770 72
2004-02-25 07:46:44 51°14.205 2°53.896 12.5 52 3.5 100770 72
2004-02-25 07:46:48 51°14.196 2°53.874 14.8 59 3.5 100770 72
2004-02-25 07:46:54 51°14.185 2°53.84 14.8 51 3.5 100770 72
2004-02-25 07:46:59 51°14.175 2°53.812 13.8 52 3.5 100770 72
2004-02-25 07:47:04 51°14.166 2°53.784 12.3 58 3.5 100770 71
2004-02-25 07:47:08 51°14.157 2°53.762 15.1 59 3.5 100770 71
2004-02-25 07:47:14 51°14.146 2°53.728 14.1 52 3.5 100780 71
2004-02-25 07:47:19 51°14.136 2°53.7 13.2 58 3.5 100780 71
2004-02-25 07:47:24 51°14.126 2°53.672 12.9 51 3.5 100770 71
2004-02-25 07:47:28 51°14.117 2°53.65 14.6 59 3.5 100770 71
2004-02-25 07:47:34 51°14.106 2°53.616 12.9 54 3.5 100770 71
2004-02-25 07:47:38 51°14.098 2°53.594 12.2 52 3.5 100770 71
2004-02-25 07:47:44 51°14.086 2°53.56 14.3 58 3.5 100770 72
2004-02-25 07:47:49 51°14.077 2°53.532 12.2 46 3.5 100770 72
2004-02-25 07:47:54 51°14.067 2°53.504 14 51 3.5 100770 72
2004-02-25 07:47:59 51°14.057 2°53.475 14.6 57 3.5 100770 72
2004-02-25 07:48:04 51°14.048 2°53.447 12.1 51 3.5 100780 72
2004-02-25 07:48:08 51°14.039 2°53.424 13 45 3.5 100780 72
2004-02-25 07:48:14 51°14.028 2°53.389 13.7 47 3.6 100780 73
2004-02-25 07:48:19 51°14.018 2°53.361 12.9 50 3.6 100780 73
2004-02-25 07:48:24 51°14.01 2°53.332 12.4 44 3.6 100780 72
2004-02-25 07:48:28 51°14 2°53.31 14 53 3.6 100780 72
2004-02-25 07:48:34 51°13.991 2°53.275 12.6 43 3.6 100780 72
2004-02-25 07:48:39 51°13.981 2°53.246 13 45 3.6 100780 72
2004-02-25 07:48:44 51°13.971 2°53.217 14.3 47 3.5 100780 72
2004-02-25 07:48:49 51°13.963 2°53.188 13 46 3.5 100780 72
2004-02-25 07:48:54 51°13.953 2°53.16 14.2 53 3.5 100790 72
2004-02-25 07:48:59 51°13.943 2°53.131 13 47 3.5 100790 72
2004-02-25 07:49:04 51°13.934 2°53.102 13.6 46 3.5 100780 72
2004-02-25 07:49:08 51°13.926 2°53.079 14.1 51 3.5 100780 72
2004-02-25 07:49:14 51°13.915 2°53.045 13.1 45 3.5 100770 72
2004-02-25 07:49:18 51°13.908 2°53.022 13.5 46 3.5 100770 72
2004-02-25 07:49:24 51°13.896 2°52.987 12.9 48 3.6 100780 72
2004-02-25 07:49:29 51°13.886 2°52.959 14.5 43 3.6 100780 72
2004-02-25 07:49:34 51°13.877 2°52.929 13.2 49 3.5 100780 72
2004-02-25 07:49:38 51°13.869 2°52.907 13.9 49 3.5 100780 72
2004-02-25 07:49:44 51°13.858 2°52.873 13.9 46 3.5 100780 71
2004-02-25 07:49:48 51°13.85 2°52.85 14.9 47 3.5 100780 71
2004-02-25 07:49:54 51°13.84 2°52.815 14.3 42 3.5 100790 71
2004-02-25 07:49:59 51°13.83 2°52.788 14.3 47 3.5 100790 71
2004-02-25 07:50:04 51°13.821 2°52.759 14.5 39 3.5 100790 71
2004-02-25 07:50:08 51°13.813 2°52.736 15.5 47 3.5 100790 71
2004-02-25 07:50:14 51°13.803 2°52.701 14.8 45 3.5 100790 71
2004-02-25 07:50:18 51°13.796 2°52.678 13.7 48 3.5 100790 71
2004-02-25 07:50:24 51°13.785 2°52.644 13.7 44 3.5 100780 71
2004-02-25 07:50:30 51°13.773 2°52.61 14.4 47 3.5 100780 71
2004-02-25 07:50:34 51°13.766 2°52.588 13.8 51 3.5 100790 71
2004-02-25 07:50:39 51°13.757 2°52.56 13.7 48 3.5 100790 71
2004-02-25 07:50:44 51°13.747 2°52.532 13.2 49 3.5 100780 71
2004-02-25 07:50:48 51°13.74 2°52.509 12.4 48 3.5 100780 71
2004-02-25 07:50:54 51°13.729 2°52.475 12.2 49 3.5 100820 71
2004-02-25 07:50:59 51°13.721 2°52.447 12.6 48 3.5 100820 71
2004-02-25 07:51:04 51°13.711 2°52.419 13.1 49 3.5 100820 71
2004-02-25 07:51:08 51°13.705 2°52.395 12.3 49 3.5 100820 71
2004-02-25 07:51:14 51°13.694 2°52.362 12.5 48 3.5 100820 71
2004-02-25 07:51:19 51°13.684 2°52.333 13.2 57 3.5 100820 71
2004-02-25 07:51:24 51°13.676 2°52.304 11.8 49 3.5 100820 71
2004-02-25 07:51:28 51°13.669 2°52.282 12.4 44 3.5 100820 71
2004-02-25 07:51:34 51°13.657 2°52.249 13.9 46 3.4 100820 71
2004-02-25 07:51:38 51°13.65 2°52.226 13.5 54 3.4 100820 71
2004-02-25 07:51:44 51°13.638 2°52.193 12.7 53 3.4 100820 71
2004-02-25 07:51:48 51°13.631 2°52.17 12.2 43 3.4 100820 71
2004-02-25 07:51:54 51°13.62 2°52.136 14.3 50 3.4 100830 71
2004-02-25 07:51:59 51°13.611 2°52.107 10.8 39 3.4 100830 71
2004-02-25 07:52:04 51°13.601 2°52.079 12.6 48 3.4 100820 71
2004-02-25 07:52:08 51°13.594 2°52.056 13 43 3.4 100820 71
2004-02-25 07:52:14 51°13.583 2°52.023 12.7 46 3.4 100820 71
2004-02-25 07:52:19 51°13.573 2°51.994 13.7 53 3.4 100820 71
2004-02-25 07:52:24 51°13.565 2°51.965 12.3 41 3.5 100830 71
2004-02-25 07:52:28 51°13.557 2°51.943 12.1 43 3.5 100830 71
2004-02-25 07:52:34 51°13.546 2°51.909 13.6 39 3.5 100820 71
2004-02-25 07:52:38 51°13.537 2°51.886 14.4 49 3.5 100820 71
2004-02-25 07:52:44 51°13.527 2°51.852 13 51 3.5 100820 71
2004-02-25 07:52:48 51°13.518 2°51.83 14.7 52 3.5 100820 71
2004-02-25 07:52:54 51°13.508 2°51.795 13.3 50 3.5 100830 71
2004-02-25 07:52:59 51°13.497 2°51.766 15.4 50 3.5 100830 71
2004-02-25 07:53:04 51°13.489 2°51.737 15 45 3.5 100820 71
2004-02-25 07:53:08 51°13.481 2°51.714 15 55 3.5 100820 71
2004-02-25 07:53:14 51°13.472 2°51.679 13.1 40 3.5 100820 71
2004-02-25 07:53:19 51°13.461 2°51.651 15.2 56 3.5 100820 71
2004-02-25 07:53:24 51°13.453 2°51.621 13.8 52 3.5 100820 71
2004-02-25 07:53:28 51°13.444 2°51.6 13.4 51 3.5 100820 71
2004-02-25 07:53:34 51°13.433 2°51.564 13.1 41 3.5 100820 71
2004-02-25 07:53:38 51°13.425 2°51.542 14.3 48 3.5 100820 71
2004-02-25 07:53:44 51°13.415 2°51.508 13.4 41 3.5 100820 71
2004-02-25 07:53:49 51°13.406 2°51.479 12.9 42 3.5 100820 71
2004-02-25 07:53:54 51°13.396 2°51.451 13 47 3.5 100810 71
2004-02-25 07:53:59 51°13.387 2°51.422 12.6 45 3.5 100810 71
2004-02-25 07:54:04 51°13.377 2°51.395 14.1 45 3.5 100820 71
2004-02-25 07:54:08 51°13.37 2°51.371 12.8 43 3.5 100820 71
2004-02-25 07:54:14 51°13.359 2°51.337 13.3 45 3.4 100820 70
2004-02-25 07:54:19 51°13.349 2°51.308 13 43 3.4 100820 70
2004-02-25 07:54:24 51°13.34 2°51.279 13.2 46 3.4 100820 70
2004-02-25 07:54:28 51°13.332 2°51.257 12.8 46 3.4 100820 70
2004-02-25 07:54:34 51°13.321 2°51.222 11.6 41 3.4 100830 70
2004-02-25 07:54:38 51°13.312 2°51.2 13.9 47 3.4 100830 70
2004-02-25 07:54:44 51°13.302 2°51.165 12.2 43 3.5 100830 71
2004-02-25 07:54:49 51°13.292 2°51.137 13.5 50 3.5 100830 71
2004-02-25 07:54:54 51°13.283 2°51.108 14.2 46 3.5 100830 71
2004-02-25 07:54:59 51°13.273 2°51.08 13.5 50 3.5 100830 71
2004-02-25 07:55:04 51°13.264 2°51.051 13.5 50 3.5 100820 71
2004-02-25 07:55:08 51°13.256 2°51.028 13 44 3.5 100820 71
2004-02-25 07:55:14 51°13.245 2°50.994 13.9 52 3.5 100820 71
2004-02-25 07:55:18 51°13.238 2°50.971 13.6 49 3.5 100820 71
2004-02-25 07:55:24 51°13.227 2°50.936 13.5 52 3.5 100820 71
2004-02-25 07:55:28 51°13.219 2°50.913 12.5 50 3.5 100820 71
2004-02-25 07:55:34 51°13.208 2°50.877 14.4 51 3.5 100820 70
2004-02-25 07:55:39 51°13.198 2°50.849 13.8 49 3.5 100820 70
2004-02-25 07:55:44 51°13.19 2°50.819 13.7 49 3.4 100820 70
2004-02-25 07:55:48 51°13.182 2°50.796 13.6 52 3.4 100820 70
2004-02-25 07:55:54 51°13.171 2°50.76 13.4 49 3.5 100820 71
2004-02-25 07:55:59 51°13.161 2°50.732 13.5 49 3.5 100820 71
2004-02-25 07:56:04 51°13.153 2°50.702 13.4 47 3.5 100820 71
2004-02-25 07:56:08 51°13.144 2°50.68 14 51 3.5 100820 71
2004-02-25 07:56:14 51°13.133 2°50.646 13 50 3.5 100820 71
2004-02-25 07:56:19 51°13.123 2°50.618 14 51 3.5 100820 71
2004-02-25 07:56:24 51°13.112 2°50.59 14.3 55 3.5 100820 71
2004-02-25 07:56:28 51°13.104 2°50.567 13.7 50 3.5 100820 71
2004-02-25 07:56:34 51°13.092 2°50.533 13.2 50 3.5 100820 71
2004-02-25 07:56:39 51°13.082 2°50.505 12.8 53 3.5 100820 71
2004-02-25 07:56:44 51°13.072 2°50.476 12.1 52 3.5 100810 71
2004-02-25 07:56:48 51°13.064 2°50.454 12.1 50 3.5 100810 71
2004-02-25 07:56:54 51°13.052 2°50.42 12.8 51 3.5 100820 71
2004-02-25 07:56:59 51°13.042 2°50.391 12.7 53 3.5 100820 71
2004-02-25 07:57:04 51°13.033 2°50.363 12.3 54 3.4 100810 71
2004-02-25 07:57:08 51°13.025 2°50.34 13.3 53 3.4 100810 71
2004-02-25 07:57:14 51°13.014 2°50.306 12 52 3.4 100820 71
2004-02-25 07:57:19 51°13.003 2°50.278 13.1 54 3.4 100820 71
2004-02-25 07:57:24 51°12.993 2°50.249 12.2 53 3.5 100830 71
2004-02-25 07:57:28 51°12.985 2°50.227 13 49 3.5 100830 71
2004-02-25 07:57:34 51°12.973 2°50.194 12.9 51 3.4 100830 71
2004-02-25 07:57:38 51°12.965 2°50.171 12.4 50 3.4 100830 71
2004-02-25 07:57:44 51°12.953 2°50.137 12.6 51 3.4 100830 71
2004-02-25 07:57:49 51°12.942 2°50.109 13.2 56 3.4 100830 71
2004-02-25 07:57:54 51°12.933 2°50.08 12.3 48 3.4 100820 71
2004-02-25 07:57:59 51°12.921 2°50.052 12.5 57 3.4 100820 71
2004-02-25 07:58:04 51°12.912 2°50.024 11.9 50 3.5 100830 71
2004-02-25 07:58:09 51°12.901 2°49.996 13.3 56 3.5 100830 71
2004-02-25 07:58:14 51°12.892 2°49.967 12.5 50 3.5 100820 72
2004-02-25 07:58:19 51°12.882 2°49.939 14.1 54 3.5 100820 72
2004-02-25 07:58:24 51°12.872 2°49.91 12.6 49 3.5 100830 72
2004-02-25 07:58:28 51°12.864 2°49.888 12.9 53 3.5 100830 72
2004-02-25 07:58:34 51°12.852 2°49.854 13.7 59 3.5 100830 72
2004-02-25 07:58:39 51°12.842 2°49.826 12.8 44 3.5 100830 72
2004-02-25 07:58:44 51°12.833 2°49.797 13 48 3.6 100830 72
2004-02-25 07:58:48 51°12.825 2°49.775 13.6 51 3.6 100830 72
2004-02-25 07:58:54 51°12.813 2°49.741 14.4 49 3.5 100830 72
2004-02-25 07:58:59 51°12.804 2°49.712 11.8 48 3.5 100830 72
2004-02-25 07:59:04 51°12.794 2°49.685 14.4 43 3.5 100830 72
2004-02-25 07:59:08 51°12.786 2°49.662 14 44 3.5 100830 72
2004-02-25 07:59:14 51°12.774 2°49.627 13.1 44 3.5 100830 72
2004-02-25 07:59:19 51°12.765 2°49.599 13.6 48 3.5 100830 72
2004-02-25 07:59:24 51°12.754 2°49.572 14.2 52 3.5 100820 72
2004-02-25 07:59:29 51°12.746 2°49.543 13.8 52 3.5 100820 72
2004-02-25 07:59:34 51°12.735 2°49.516 14.3 52 3.5 100820 71
2004-02-25 07:59:39 51°12.725 2°49.487 14.1 49 3.5 100820 71
2004-02-25 07:59:44 51°12.716 2°49.458 13.7 48 3.5 100830 71
2004-02-25 07:59:49 51°12.705 2°49.431 13.9 51 3.5 100830 71
2004-02-25 07:59:54 51°12.696 2°49.402 13.3 48 3.5 100830 71
2004-02-25 07:59:59 51°12.685 2°49.374 14 52 3.5 100830 71
2004-02-25 08:00:04 51°12.676 2°49.345 13.5 49 3.5 100830 71
2004-02-25 08:00:08 51°12.667 2°49.323 12.8 53 3.5 100830 71
2004-02-25 08:00:14 51°12.656 2°49.289 12.3 52 3.5 100830 71
2004-02-25 08:00:18 51°12.648 2°49.267 13.7 53 3.5 100830 71
2004-02-25 08:00:24 51°12.636 2°49.233 14.2 52 3.5 100790 71
2004-02-25 08:00:29 51°12.626 2°49.204 13.7 42 3.5 100790 71
2004-02-25 08:00:34 51°12.616 2°49.176 13.2 44 3.5 100790 71
2004-02-25 08:00:39 51°12.606 2°49.147 14 50 3.5 100790 71
2004-02-25 08:00:44 51°12.596 2°49.119 13.3 45 3.5 100790 71
2004-02-25 08:00:50 51°12.585 2°49.084 13.4 41 3.5 100790 71
2004-02-25 08:00:54 51°12.577 2°49.062 14 44 3.5 100790 71
2004-02-25 08:00:59 51°12.567 2°49.033 14.2 46 3.5 100790 71
2004-02-25 08:01:04 51°12.557 2°49.004 14.5 52 3.5 100790 71
2004-02-25 08:01:08 51°12.55 2°48.981 13.1 41 3.5 100790 71
2004-02-25 08:01:14 51°12.538 2°48.947 15 45 3.5 100790 72
2004-02-25 08:01:19 51°12.529 2°48.918 13.9 43 3.5 100790 72
2004-02-25 08:01:24 51°12.518 2°48.891 15.1 43 3.5 100790 71
2004-02-25 08:01:30 51°12.506 2°48.856 14.7 41 3.5 100790 71
2004-02-25 08:01:34 51°12.498 2°48.834 15.4 43 3.5 100780 72
2004-02-25 08:01:39 51°12.489 2°48.805 13.3 42 3.5 100780 72
2004-02-25 08:01:44 51°12.479 2°48.777 14.4 44 3.5 100790 72
2004-02-25 08:01:48 51°12.47 2°48.755 13.9 45 3.5 100790 72
2004-02-25 08:01:54 51°12.459 2°48.722 12.6 42 3.5 100790 71
2004-02-25 08:01:59 51°12.448 2°48.693 14 46 3.5 100790 71
2004-02-25 08:02:04 51°12.439 2°48.665 14.3 50 3.5 100790 71
2004-02-25 08:02:10 51°12.426 2°48.632 15.6 45 3.5 100790 71
2004-02-25 08:02:14 51°12.419 2°48.608 14.9 40 3.5 100780 71
2004-02-25 08:02:19 51°12.409 2°48.581 13.1 47 3.5 100780 71
2004-02-25 08:02:24 51°12.4 2°48.552 13.8 39 3.5 100790 71
2004-02-25 08:02:28 51°12.391 2°48.531 14.6 44 3.5 100790 71
2004-02-25 08:02:34 51°12.38 2°48.497 12.9 41 3.5 100800 71
2004-02-25 08:02:39 51°12.368 2°48.47 14.3 43 3.5 100800 71
2004-02-25 08:02:44 51°12.36 2°48.44 12.2 37 3.5 100790 71
2004-02-25 08:02:48 51°12.351 2°48.419 15.4 38 3.5 100790 71
2004-02-25 08:02:54 51°12.339 2°48.384 15.3 41 3.5 100800 70
2004-02-25 08:02:59 51°12.33 2°48.357 14.3 41 3.5 100800 70
2004-02-25 08:03:04 51°12.32 2°48.328 14.1 38 3.5 100800 70
2004-02-25 08:03:08 51°12.312 2°48.306 14.7 37 3.5 100800 70
2004-02-25 08:03:14 51°12.301 2°48.271 14.4 34 3.5 100800 70
2004-02-25 08:03:19 51°12.291 2°48.244 15.2 39 3.5 100800 70
2004-02-25 08:03:24 51°12.282 2°48.215 15.5 38 3.5 100790 70
2004-02-25 08:03:28 51°12.273 2°48.193 16.3 42 3.5 100790 70
2004-02-25 08:03:34 51°12.262 2°48.159 16 43 3.5 100790 70
2004-02-25 08:03:38 51°12.254 2°48.136 14.6 43 3.5 100790 70
2004-02-25 08:03:44 51°12.242 2°48.103 15.8 41 3.5 100800 70
2004-02-25 08:03:49 51°12.233 2°48.074 14.4 39 3.5 100800 70
2004-02-25 08:03:54 51°12.223 2°48.046 14.2 40 3.5 100790 70
2004-02-25 08:03:59 51°12.213 2°48.018 14.2 38 3.5 100790 70
2004-02-25 08:04:04 51°12.204 2°47.99 14.1 44 3.5 100780 69
2004-02-25 08:04:10 51°12.192 2°47.956 15.1 36 3.5 100780 69
2004-02-25 08:04:14 51°12.184 2°47.934 15.3 40 3.5 100780 69
2004-02-25 08:04:19 51°12.175 2°47.906 15.7 43 3.5 100780 69
2004-02-25 08:04:24 51°12.165 2°47.878 14.9 39 3.5 100790 70
2004-02-25 08:04:29 51°12.155 2°47.85 14.8 39 3.5 100790 70
2004-02-25 08:04:34 51°12.145 2°47.821 13.9 39 3.5 100850 70
2004-02-25 08:04:38 51°12.138 2°47.799 13.7 39 3.5 100850 70
2004-02-25 08:04:44 51°12.125 2°47.766 15.8 39 3.5 100790 69
2004-02-25 08:04:50 51°12.114 2°47.731 14.6 37 3.5 100790 69
2004-02-25 08:04:54 51°12.105 2°47.71 15 41 3.5 100790 69
2004-02-25 08:04:59 51°12.097 2°47.681 14.5 34 3.5 100790 69
2004-02-25 08:05:04 51°12.086 2°47.654 15.3 43 3.5 100790 70
2004-02-25 08:05:09 51°12.078 2°47.624 13.9 37 3.5 100790 70
2004-02-25 08:05:14 51°12.067 2°47.598 16 40 3.5 100790 69
2004-02-25 08:05:19 51°12.058 2°47.569 14.6 32 3.5 100790 69
2004-02-25 08:05:24 51°12.047 2°47.541 15 39 3.5 100790 69
2004-02-25 08:05:30 51°12.036 2°47.507 13.6 36 3.5 100790 69
2004-02-25 08:05:34 51°12.028 2°47.484 14.6 39 3.5 100790 69
2004-02-25 08:05:39 51°12.019 2°47.456 14.2 42 3.5 100790 69
2004-02-25 08:05:44 51°12.01 2°47.428 14.7 41 3.5 100790 69
2004-02-25 08:05:50 51°11.998 2°47.394 15.4 41 3.5 100790 69
2004-02-25 08:05:54 51°11.99 2°47.372 15.7 43 3.5 100790 69
2004-02-25 08:05:59 51°11.98 2°47.343 14.6 43 3.5 100790 69
2004-02-25 08:06:04 51°11.971 2°47.315 15.1 42 3.5 100790 70
2004-02-25 08:06:10 51°11.96 2°47.281 14.1 43 3.5 100790 70
2004-02-25 08:06:14 51°11.951 2°47.26 14.4 45 3.5 100790 70
2004-02-25 08:06:19 51°11.941 2°47.232 14.9 46 3.5 100790 70
2004-02-25 08:06:24 51°11.932 2°47.203 13.8 39 3.5 100780 70
2004-02-25 08:06:29 51°11.921 2°47.176 15 47 3.5 100780 70
2004-02-25 08:06:34 51°11.912 2°47.147 13.4 38 3.5 100790 69
2004-02-25 08:06:39 51°11.902 2°47.118 14.2 44 3.5 100790 69
2004-02-25 08:06:44 51°11.893 2°47.089 14.5 41 3.5 100790 70
2004-02-25 08:06:48 51°11.888 2°47.065 14.7 37 3.5 100790 70
2004-02-25 08:06:54 51°11.878 2°47.03 14.7 37 3.5 100790 70
2004-02-25 08:06:59 51°11.871 2°46.999 15.2 34 3.5 100790 70
2004-02-25 08:07:04 51°11.863 2°46.969 15.4 36 3.5 100790 70
2004-02-25 08:07:09 51°11.858 2°46.938 13.7 36 3.5 100790 70
2004-02-25 08:07:14 51°11.85 2°46.909 14.8 38 3.5 100790 70
2004-02-25 08:07:19 51°11.844 2°46.878 14.2 32 3.5 100790 70
2004-02-25 08:07:24 51°11.837 2°46.848 15 31 3.5 100790 70
2004-02-25 08:07:28 51°11.832 2°46.823 15.3 41 3.5 100790 70
2004-02-25 08:07:34 51°11.824 2°46.787 15 38 3.5 100800 70
2004-02-25 08:07:39 51°11.817 2°46.756 15.3 34 3.5 100800 70
2004-02-25 08:07:44 51°11.811 2°46.725 13.7 35 3.5 100790 70
2004-02-25 08:07:48 51°11.805 2°46.702 15.8 45 3.5 100790 70
2004-02-25 08:07:54 51°11.797 2°46.665 15.5 38 3.5 100790 70
2004-02-25 08:07:59 51°11.79 2°46.635 14.9 43 3.5 100790 70
2004-02-25 08:08:04 51°11.784 2°46.604 14.5 40 3.5 100790 70
2004-02-25 08:08:08 51°11.779 2°46.58 15 36 3.5 100790 70
2004-02-25 08:08:14 51°11.772 2°46.543 14.2 37 3.5 100790 70
2004-02-25 08:08:19 51°11.765 2°46.512 14.2 40 3.5 100790 70
2004-02-25 08:08:24 51°11.758 2°46.482 14.7 40 3.5 100790 70
2004-02-25 08:08:30 51°11.751 2°46.445 14 37 3.5 100790 70
2004-02-25 08:08:34 51°11.745 2°46.421 15.3 38 3.5 100790 71
2004-02-25 08:08:38 51°11.74 2°46.396 15.2 41 3.5 100790 71
2004-02-25 08:08:44 51°11.732 2°46.36 14.1 37 3.6 100790 71
2004-02-25 08:08:49 51°11.726 2°46.329 14.6 40 3.6 100790 71
2004-02-25 08:08:54 51°11.718 2°46.299 15.3 40 3.5 100800 71
2004-02-25 08:08:59 51°11.712 2°46.267 14.8 42 3.5 100800 71
2004-02-25 08:09:04 51°11.706 2°46.237 14.1 35 3.5 100800 71
2004-02-25 08:09:09 51°11.699 2°46.206 13.1 37 3.5 100800 71
2004-02-25 08:09:14 51°11.693 2°46.175 13.9 41 3.6 100790 71
2004-02-25 08:09:18 51°11.687 2°46.151 15.1 36 3.6 100790 71
2004-02-25 08:09:24 51°11.679 2°46.115 16 39 3.6 100790 71
2004-02-25 08:09:29 51°11.673 2°46.083 15.8 36 3.6 100790 71
2004-02-25 08:09:34 51°11.666 2°46.053 15.7 38 3.6 100790 71
2004-02-25 08:09:39 51°11.659 2°46.023 14.2 30 3.6 100790 71
2004-02-25 08:09:44 51°11.654 2°45.991 15.1 27 3.6 100780 71
2004-02-25 08:09:49 51°11.646 2°45.961 15.2 32 3.6 100780 71
2004-02-25 08:09:54 51°11.64 2°45.931 15.5 29 3.6 100800 71
2004-02-25 08:09:58 51°11.634 2°45.907 14.8 34 3.6 100800 71
2004-02-25 08:10:04 51°11.627 2°45.87 14.8 33 3.6 100800 71
2004-02-25 08:10:10 51°11.618 2°45.834 14.2 34 3.6 100800 71
2004-02-25 08:10:14 51°11.613 2°45.809 15.1 29 3.5 100800 71
2004-02-25 08:10:18 51°11.607 2°45.784 14.9 28 3.5 100800 71
2004-02-25 08:10:24 51°11.6 2°45.747 16.2 30 3.6 100800 71
2004-02-25 08:10:29 51°11.593 2°45.717 15.5 29 3.6 100800 71
2004-02-25 08:10:34 51°11.586 2°45.686 16.5 30 3.6 100810 71
2004-02-25 08:10:38 51°11.581 2°45.662 15.6 31 3.6 100810 71
2004-02-25 08:10:44 51°11.573 2°45.625 15.8 29 3.6 100800 71
2004-02-25 08:10:48 51°11.567 2°45.601 16 32 3.6 100800 71
2004-02-25 08:10:54 51°11.559 2°45.564 15.4 34 3.6 100790 71
2004-02-25 08:10:59 51°11.553 2°45.534 15 32 3.6 100790 71
2004-02-25 08:11:04 51°11.546 2°45.503 15.3 36 3.5 100790 70
2004-02-25 08:11:10 51°11.538 2°45.467 14.8 38 3.5 100790 70
2004-02-25 08:11:14 51°11.533 2°45.442 14.7 38 3.6 100790 70
2004-02-25 08:11:19 51°11.526 2°45.412 14.8 37 3.6 100790 70
2004-02-25 08:11:24 51°11.52 2°45.382 14.1 33 3.5 100790 70
2004-02-25 08:11:30 51°11.512 2°45.345 15 36 3.5 100790 70
2004-02-25 08:11:34 51°11.506 2°45.32 13.9 32 3.5 100840 69
2004-02-25 08:11:39 51°11.5 2°45.29 14.5 34 3.5 100840 69
2004-02-25 08:11:44 51°11.493 2°45.26 13.9 33 3.5 100790 69
2004-02-25 08:11:50 51°11.486 2°45.223 13.4 23 3.5 100790 69
2004-02-25 08:11:54 51°11.48 2°45.199 14.8 31 3.6 100790 70
2004-02-25 08:11:59 51°11.473 2°45.168 15.5 34 3.6 100790 70
2004-02-25 08:12:04 51°11.467 2°45.137 14.8 31 3.5 100800 69
2004-02-25 08:12:08 51°11.462 2°45.113 16.1 32 3.5 100800 69
2004-02-25 08:12:14 51°11.454 2°45.077 15.5 32 3.6 100800 70
2004-02-25 08:12:19 51°11.447 2°45.046 15.1 37 3.6 100800 70
2004-02-25 08:12:24 51°11.441 2°45.015 14.8 37 3.6 100800 70
2004-02-25 08:12:30 51°11.433 2°44.979 14.9 38 3.6 100800 70
2004-02-25 08:12:34 51°11.427 2°44.955 13.7 36 3.6 100800 70
2004-02-25 08:12:39 51°11.421 2°44.925 15.5 34 3.6 100800 70
2004-02-25 08:12:44 51°11.414 2°44.894 14.7 35 3.6 100790 69
2004-02-25 08:12:49 51°11.408 2°44.863 15.1 33 3.6 100790 69
2004-02-25 08:12:54 51°11.4 2°44.833 15.5 37 3.6 100800 69
2004-02-25 08:12:58 51°11.395 2°44.809 14 34 3.6 100800 69
2004-02-25 08:13:04 51°11.387 2°44.773 14.9 29 3.6 100800 69
2004-02-25 08:13:08 51°11.382 2°44.749 14.8 29 3.6 100800 69
2004-02-25 08:13:14 51°11.373 2°44.712 15.6 28 3.6 100790 69
2004-02-25 08:13:19 51°11.367 2°44.681 15.7 32 3.6 100790 69
2004-02-25 08:13:24 51°11.361 2°44.651 15.3 33 3.6 100800 69
2004-02-25 08:13:30 51°11.353 2°44.614 15.9 31 3.6 100800 69
2004-02-25 08:13:34 51°11.347 2°44.59 15.7 35 3.6 100790 70
2004-02-25 08:13:39 51°11.341 2°44.559 16.5 31 3.6 100790 70
2004-02-25 08:13:44 51°11.335 2°44.528 15.5 32 3.6 100790 69
2004-02-25 08:13:50 51°11.326 2°44.493 16.5 34 3.6 100790 69
2004-02-25 08:13:54 51°11.322 2°44.468 13.7 34 3.6 100790 69
2004-02-25 08:13:59 51°11.316 2°44.438 15.5 35 3.6 100790 69
2004-02-25 08:14:04 51°11.309 2°44.408 14.5 33 3.6 100800 69
2004-02-25 08:14:08 51°11.304 2°44.383 15.5 31 3.6 100800 69
2004-02-25 08:14:14 51°11.296 2°44.346 14.8 31 3.6 100800 70
2004-02-25 08:14:18 51°11.291 2°44.322 14.1 36 3.6 100800 70
2004-02-25 08:14:24 51°11.283 2°44.285 14.5 32 3.6 100800 69
2004-02-25 08:14:28 51°11.278 2°44.261 14.3 30 3.6 100800 69
2004-02-25 08:14:34 51°11.269 2°44.225 14.6 34 3.6 100800 69
2004-02-25 08:14:39 51°11.263 2°44.194 13.1 34 3.6 100800 69
2004-02-25 08:14:44 51°11.256 2°44.164 15.7 33 3.6 100810 69
2004-02-25 08:14:48 51°11.252 2°44.139 15.3 25 3.6 100810 69
2004-02-25 08:14:54 51°11.243 2°44.103 15.1 33 3.6 100800 70
2004-02-25 08:14:59 51°11.237 2°44.072 16.5 23 3.6 100800 70
2004-02-25 08:15:04 51°11.23 2°44.041 17.9 27 3.6 100800 70
2004-02-25 08:15:10 51°11.223 2°44.004 16 23 3.6 100800 70
2004-02-25 08:15:14 51°11.218 2°43.979 16.8 30 3.6 100800 70
2004-02-25 08:15:19 51°11.211 2°43.95 16.5 34 3.6 100800 70
2004-02-25 08:15:24 51°11.204 2°43.92 16.8 31 3.6 100800 70
2004-02-25 08:15:28 51°11.199 2°43.896 15.6 32 3.6 100800 70
2004-02-25 08:15:34 51°11.191 2°43.859 15.6 33 3.6 100800 70
2004-02-25 08:15:39 51°11.184 2°43.829 16.3 33 3.6 100800 70
2004-02-25 08:15:44 51°11.177 2°43.799 15.6 32 3.6 100790 70
2004-02-25 08:15:48 51°11.172 2°43.774 14.6 30 3.6 100790 70
2004-02-25 08:15:54 51°11.164 2°43.737 14.1 31 3.6 100800 69
2004-02-25 08:15:58 51°11.159 2°43.713 15.3 31 3.6 100800 69
2004-02-25 08:16:04 51°11.151 2°43.677 15.6 29 3.6 100790 69
2004-02-25 08:16:08 51°11.145 2°43.653 15.2 31 3.6 100790 69
2004-02-25 08:16:14 51°11.138 2°43.617 15.4 24 3.6 100800 69
2004-02-25 08:16:19 51°11.131 2°43.587 17 31 3.6 100800 69
2004-02-25 08:16:24 51°11.125 2°43.557 15.5 29 3.6 100800 70
2004-02-25 08:16:30 51°11.117 2°43.521 15.5 25 3.6 100800 70
2004-02-25 08:16:34 51°11.111 2°43.496 16.6 33 3.6 100800 70
2004-02-25 08:16:38 51°11.106 2°43.471 16.2 28 3.6 100800 70
2004-02-25 08:16:44 51°11.098 2°43.435 15.8 32 3.6 100800 70
2004-02-25 08:16:48 51°11.092 2°43.412 15.7 34 3.6 100800 70
2004-02-25 08:16:54 51°11.084 2°43.376 14.9 36 3.6 100800 71
2004-02-25 08:16:58 51°11.079 2°43.351 14.8 31 3.6 100800 71
2004-02-25 08:17:04 51°11.071 2°43.314 15 35 3.6 100790 70
2004-02-25 08:17:09 51°11.064 2°43.284 14.2 35 3.6 100790 70
2004-02-25 08:17:14 51°11.058 2°43.255 15.9 25 3.6 100800 70
2004-02-25 08:17:19 51°11.051 2°43.224 15.9 31 3.6 100800 70
2004-02-25 08:17:24 51°11.045 2°43.194 16.5 30 3.6 100800 70
2004-02-25 08:17:30 51°11.037 2°43.157 16.3 34 3.6 100800 70
2004-02-25 08:17:34 51°11.032 2°43.133 15.8 33 3.6 100800 71
2004-02-25 08:17:38 51°11.026 2°43.108 16.1 34 3.6 100800 71
2004-02-25 08:17:44 51°11.019 2°43.072 15.9 31 3.6 100800 70
2004-02-25 08:17:49 51°11.013 2°43.042 16.3 33 3.6 100800 70
2004-02-25 08:17:54 51°11.006 2°43.012 15 32 3.5 100790 70
2004-02-25 08:17:59 51°11 2°42.982 15.6 35 3.5 100790 70
2004-02-25 08:18:04 51°10.994 2°42.951 14.9 31 3.5 100800 69
2004-02-25 08:18:10 51°10.986 2°42.915 15.9 35 3.5 100800 69
2004-02-25 08:18:14 51°10.981 2°42.891 14.4 27 3.5 100800 70
2004-02-25 08:18:19 51°10.975 2°42.86 15.1 33 3.5 100800 70
2004-02-25 08:18:24 51°10.968 2°42.83 14.4 30 3.5 100800 70
2004-02-25 08:18:28 51°10.964 2°42.805 15.5 34 3.5 100800 70
2004-02-25 08:18:34 51°10.956 2°42.769 15.4 35 3.5 100810 70
2004-02-25 08:18:39 51°10.95 2°42.739 15.9 40 3.5 100810 70
2004-02-25 08:18:44 51°10.942 2°42.709 15.8 40 3.6 100810 71
2004-02-25 08:18:50 51°10.935 2°42.672 15 35 3.6 100810 71
2004-02-25 08:18:54 51°10.93 2°42.647 14 33 3.5 100800 71
2004-02-25 08:18:59 51°10.924 2°42.617 14.6 36 3.5 100800 71
2004-02-25 08:19:04 51°10.917 2°42.587 14.6 37 3.5 100800 70
2004-02-25 08:19:08 51°10.912 2°42.562 14.1 36 3.5 100800 70
2004-02-25 08:19:14 51°10.904 2°42.526 15.2 39 3.5 100800 71
2004-02-25 08:19:19 51°10.898 2°42.495 14.9 39 3.5 100800 71
2004-02-25 08:19:24 51°10.892 2°42.464 16.5 39 3.5 100800 71
2004-02-25 08:19:30 51°10.884 2°42.427 15 34 3.5 100800 71
2004-02-25 08:19:34 51°10.88 2°42.402 15.1 32 3.5 100800 71
2004-02-25 08:19:39 51°10.874 2°42.372 16 27 3.5 100800 71
2004-02-25 08:19:44 51°10.869 2°42.34 16.5 30 3.5 100810 71
2004-02-25 08:19:48 51°10.865 2°42.316 15.5 29 3.5 100810 71
2004-02-25 08:19:54 51°10.858 2°42.279 16.9 30 3.6 100800 71
2004-02-25 08:19:59 51°10.853 2°42.248 16 28 3.6 100800 71
2004-02-25 08:20:04 51°10.848 2°42.217 17.1 28 3.6 100800 72
2004-02-25 08:20:10 51°10.841 2°42.18 15.7 24 3.6 100800 72
2004-02-25 08:20:14 51°10.838 2°42.155 17.1 29 3.6 100810 71
2004-02-25 08:20:19 51°10.832 2°42.123 16 33 3.6 100810 71
2004-02-25 08:20:24 51°10.827 2°42.092 16.8 28 3.5 100810 71
2004-02-25 08:20:28 51°10.823 2°42.067 16.1 29 3.5 100810 71
2004-02-25 08:20:34 51°10.817 2°42.029 16.1 31 3.5 100810 71
2004-02-25 08:20:39 51°10.811 2°41.998 17 26 3.5 100810 71
2004-02-25 08:20:44 51°10.806 2°41.967 16.8 31 3.5 100800 71
2004-02-25 08:20:50 51°10.8 2°41.931 16.8 32 3.5 100800 71
2004-02-25 08:20:54 51°10.796 2°41.906 16.8 34 3.6 100810 71
2004-02-25 08:20:59 51°10.791 2°41.875 16.1 32 3.6 100810 71
2004-02-25 08:21:04 51°10.785 2°41.844 14.5 26 3.5 100800 71
2004-02-25 08:21:10 51°10.779 2°41.807 16.9 33 3.5 100800 71
2004-02-25 08:21:14 51°10.774 2°41.783 17.3 36 3.5 100800 70
2004-02-25 08:21:19 51°10.769 2°41.752 16.5 34 3.5 100800 70
2004-02-25 08:21:24 51°10.763 2°41.72 16.2 29 3.5 100790 71
2004-02-25 08:21:29 51°10.758 2°41.689 17 30 3.5 100790 71
2004-02-25 08:21:34 51°10.753 2°41.658 17.2 32 3.5 100810 70
2004-02-25 08:21:40 51°10.747 2°41.622 17.2 30 3.5 100810 70
2004-02-25 08:21:44 51°10.743 2°41.597 16.3 29 3.5 100800 70
2004-02-25 08:21:50 51°10.736 2°41.56 15.4 32 3.5 100800 70
2004-02-25 08:21:54 51°10.732 2°41.535 15.5 30 3.5 100800 70
2004-02-25 08:21:58 51°10.728 2°41.51 16.5 32 3.5 100800 70
2004-02-25 08:22:04 51°10.722 2°41.473 16.4 33 3.5 100800 70
2004-02-25 08:22:09 51°10.717 2°41.442 16.1 34 3.5 100800 70
2004-02-25 08:22:14 51°10.712 2°41.411 16 33 3.5 100800 70
2004-02-25 08:22:19 51°10.706 2°41.38 16.1 32 3.5 100800 70
2004-02-25 08:22:24 51°10.701 2°41.349 17.1 31 3.5 100810 70
2004-02-25 08:22:28 51°10.696 2°41.324 15.7 35 3.5 100810 70
2004-02-25 08:22:34 51°10.691 2°41.286 15.6 34 3.5 100810 70
2004-02-25 08:22:39 51°10.685 2°41.256 15.9 27 3.5 100810 70
2004-02-25 08:22:44 51°10.68 2°41.225 15.8 34 3.5 100810 70
2004-02-25 08:22:50 51°10.674 2°41.188 15.3 30 3.5 100810 70
2004-02-25 08:22:54 51°10.67 2°41.163 16.7 33 3.5 100810 70
2004-02-25 08:22:59 51°10.664 2°41.132 16.8 28 3.5 100810 70
2004-02-25 08:23:04 51°10.659 2°41.1 15.5 32 3.5 100820 71
2004-02-25 08:23:10 51°10.653 2°41.063 16.6 27 3.5 100820 71
2004-02-25 08:23:14 51°10.649 2°41.038 15.3 32 3.5 100820 71
2004-02-25 08:23:19 51°10.644 2°41.007 16.1 30 3.5 100820 71
2004-02-25 08:23:24 51°10.639 2°40.975 16 32 3.6 100820 71
2004-02-25 08:23:28 51°10.635 2°40.951 16.1 32 3.6 100820 71
2004-02-25 08:23:34 51°10.629 2°40.913 16.8 29 3.6 100810 71
2004-02-25 08:23:39 51°10.624 2°40.882 15.2 32 3.6 100810 71
2004-02-25 08:23:44 51°10.618 2°40.851 16.7 31 3.5 100850 71
2004-02-25 08:23:48 51°10.614 2°40.826 16.2 34 3.5 100850 71
2004-02-25 08:23:54 51°10.608 2°40.789 17 35 3.5 100850 70
2004-02-25 08:23:59 51°10.603 2°40.758 16.8 35 3.5 100850 70
2004-02-25 08:24:04 51°10.597 2°40.727 15.5 34 3.5 100840 70
2004-02-25 08:24:08 51°10.593 2°40.702 17.5 34 3.5 100840 70
2004-02-25 08:24:14 51°10.586 2°40.665 15.4 34 3.5 100850 70
2004-02-25 08:24:19 51°10.581 2°40.634 14.6 32 3.5 100850 70
2004-02-25 08:24:24 51°10.575 2°40.602 15.2 34 3.5 100840 70
2004-02-25 08:24:30 51°10.569 2°40.565 14.1 34 3.5 100840 70
2004-02-25 08:24:34 51°10.564 2°40.541 14.8 36 3.5 100840 70
2004-02-25 08:24:39 51°10.559 2°40.509 15.6 35 3.5 100840 70
2004-02-25 08:24:44 51°10.554 2°40.479 15.5 33 3.5 100850 71
2004-02-25 08:24:48 51°10.55 2°40.454 15 31 3.5 100850 71
2004-02-25 08:24:54 51°10.543 2°40.416 15.7 30 3.5 100850 71
2004-02-25 08:24:59 51°10.538 2°40.385 16.4 34 3.5 100850 71
2004-02-25 08:25:04 51°10.533 2°40.354 15.4 30 3.5 100850 71
2004-02-25 08:25:10 51°10.526 2°40.317 16.2 33 3.5 100850 71
2004-02-25 08:25:14 51°10.523 2°40.292 15.7 35 3.5 100850 71
2004-02-25 08:25:19 51°10.517 2°40.261 15.5 32 3.5 100850 71
2004-02-25 08:25:24 51°10.512 2°40.229 14.5 30 3.5 100850 71
2004-02-25 08:25:28 51°10.507 2°40.205 16 33 3.5 100850 71
2004-02-25 08:25:34 51°10.501 2°40.167 16.7 38 3.4 100850 70
2004-02-25 08:25:39 51°10.496 2°40.137 16.1 39 3.4 100850 70
2004-02-25 08:25:44 51°10.49 2°40.106 14.2 33 3.5 100850 70
2004-02-25 08:25:50 51°10.484 2°40.068 15.3 31 3.5 100850 70
2004-02-25 08:25:54 51°10.479 2°40.044 15.9 33 3.4 100850 70
2004-02-25 08:25:59 51°10.474 2°40.012 15.4 29 3.4 100850 70
2004-02-25 08:26:04 51°10.468 2°39.981 15.5 39 3.4 100850 70
2004-02-25 08:26:08 51°10.464 2°39.957 14.9 35 3.4 100850 70
2004-02-25 08:26:14 51°10.457 2°39.92 16.2 36 3.4 100850 70
2004-02-25 08:26:19 51°10.452 2°39.888 14.3 31 3.4 100850 70
2004-02-25 08:26:24 51°10.446 2°39.858 15.8 35 3.4 100850 70
2004-02-25 08:26:28 51°10.442 2°39.833 14.7 34 3.4 100850 70
2004-02-25 08:26:34 51°10.436 2°39.795 15.4 33 3.4 100850 70
2004-02-25 08:26:39 51°10.431 2°39.764 15.3 28 3.4 100850 70
2004-02-25 08:26:44 51°10.425 2°39.732 15.8 33 3.4 100850 70
2004-02-25 08:26:50 51°10.418 2°39.695 15.6 28 3.4 100850 70
2004-02-25 08:26:54 51°10.415 2°39.67 15.5 29 3.4 100860 71
2004-02-25 08:26:59 51°10.409 2°39.639 15.8 31 3.4 100860 71
2004-02-25 08:27:04 51°10.404 2°39.607 15.4 28 3.5 100850 71
2004-02-25 08:27:10 51°10.398 2°39.57 16.2 28 3.5 100850 71
2004-02-25 08:27:14 51°10.394 2°39.545 16.2 33 3.5 100860 70
2004-02-25 08:27:19 51°10.388 2°39.514 16.2 31 3.5 100860 70
2004-02-25 08:27:24 51°10.383 2°39.483 16.5 31 3.4 100860 70
2004-02-25 08:27:30 51°10.377 2°39.445 16.7 32 3.4 100860 70
2004-02-25 08:27:34 51°10.373 2°39.42 16.5 35 3.4 100850 69
2004-02-25 08:27:39 51°10.367 2°39.39 16.6 38 3.4 100850 69
2004-02-25 08:27:44 51°10.363 2°39.359 15.2 33 3.4 100850 70
2004-02-25 08:27:49 51°10.356 2°39.329 15.1 31 3.4 100850 70
2004-02-25 08:27:54 51°10.352 2°39.298 14.9 31 3.4 100850 69
2004-02-25 08:27:59 51°10.346 2°39.267 16.1 33 3.4 100850 69
2004-02-25 08:28:04 51°10.341 2°39.237 15.4 31 3.4 100840 69
2004-02-25 08:28:08 51°10.337 2°39.212 16.8 30 3.4 100840 69
2004-02-25 08:28:14 51°10.331 2°39.175 16.5 27 3.4 100860 69
2004-02-25 08:28:19 51°10.326 2°39.144 17.1 32 3.4 100860 69
2004-02-25 08:28:24 51°10.32 2°39.114 16.3 29 3.4 100860 69
2004-02-25 08:28:30 51°10.314 2°39.077 15.4 29 3.4 100860 69
2004-02-25 08:28:34 51°10.31 2°39.053 15.4 33 3.4 100860 70
2004-02-25 08:28:39 51°10.304 2°39.023 16.5 30 3.4 100860 70
2004-02-25 08:28:44 51°10.299 2°38.992 15.5 33 3.4 100820 70
2004-02-25 08:28:49 51°10.294 2°38.961 16 32 3.4 100820 70
2004-02-25 08:28:54 51°10.289 2°38.931 16.1 36 3.4 100850 70
2004-02-25 08:28:59 51°10.284 2°38.898 15.2 28 3.4 100850 70
2004-02-25 08:29:04 51°10.278 2°38.868 15.9 31 3.4 100860 70
2004-02-25 08:29:10 51°10.272 2°38.832 15.8 28 3.4 100860 70
2004-02-25 08:29:14 51°10.267 2°38.808 17 31 3.4 100860 70
2004-02-25 08:29:19 51°10.263 2°38.777 16.4 28 3.4 100860 70
2004-02-25 08:29:24 51°10.257 2°38.747 16.3 30 3.4 100850 70
2004-02-25 08:29:28 51°10.254 2°38.722 15 29 3.4 100850 70
2004-02-25 08:29:34 51°10.248 2°38.686 16.8 32 3.5 100860 71
2004-02-25 08:29:39 51°10.243 2°38.655 15.9 30 3.5 100860 71
2004-02-25 08:29:44 51°10.238 2°38.625 15.5 31 3.4 100850 70
2004-02-25 08:29:50 51°10.231 2°38.589 16.1 30 3.4 100850 70
2004-02-25 08:29:54 51°10.226 2°38.565 15.1 30 3.4 100850 70
2004-02-25 08:29:58 51°10.223 2°38.54 15.7 30 3.4 100850 70
2004-02-25 08:30:04 51°10.216 2°38.504 16.8 31 3.5 100850 70
2004-02-25 08:30:10 51°10.21 2°38.467 16.1 29 3.5 100850 70
2004-02-25 08:30:14 51°10.205 2°38.443 16.4 33 3.4 100850 70
2004-02-25 08:30:19 51°10.2 2°38.413 15.8 34 3.4 100850 70
2004-02-25 08:30:24 51°10.194 2°38.383 16.5 35 3.4 100860 70
2004-02-25 08:30:29 51°10.19 2°38.352 16.1 34 3.4 100860 70
2004-02-25 08:30:34 51°10.184 2°38.322 18 36 3.4 100850 71
2004-02-25 08:30:38 51°10.18 2°38.297 16.4 34 3.4 100850 71
2004-02-25 08:30:44 51°10.174 2°38.26 16.5 39 3.5 100860 71
2004-02-25 08:30:48 51°10.17 2°38.236 16.5 36 3.5 100860 71
2004-02-25 08:30:54 51°10.164 2°38.199 16.6 34 3.5 100860 71
2004-02-25 08:30:58 51°10.16 2°38.174 16.3 35 3.5 100860 71
2004-02-25 08:31:04 51°10.153 2°38.136 16 34 3.4 100840 71
2004-02-25 08:31:08 51°10.15 2°38.111 16.3 34 3.4 100840 71
2004-02-25 08:31:14 51°10.143 2°38.075 16.5 36 3.4 100840 71
2004-02-25 08:31:18 51°10.139 2°38.05 16.7 36 3.4 100840 71
2004-02-25 08:31:24 51°10.133 2°38.013 16.1 39 3.4 100850 71
2004-02-25 08:31:28 51°10.129 2°37.988 16.1 37 3.4 100850 71
2004-02-25 08:31:34 51°10.124 2°37.95 15.6 35 3.4 100810 71
2004-02-25 08:31:39 51°10.118 2°37.919 15.5 38 3.4 100810 71
2004-02-25 08:31:44 51°10.114 2°37.888 14.9 26 3.4 100810 70
2004-02-25 08:31:50 51°10.107 2°37.851 17.7 32 3.4 100810 70
2004-02-25 08:31:54 51°10.104 2°37.825 16.9 37 3.4 100810 71
2004-02-25 08:31:59 51°10.099 2°37.794 17.5 38 3.4 100810 71
2004-02-25 08:32:04 51°10.095 2°37.763 15.9 35 3.4 100820 71
2004-02-25 08:32:10 51°10.089 2°37.726 16.5 36 3.4 100820 71
2004-02-25 08:32:14 51°10.084 2°37.701 17.1 38 3.4 100810 71
2004-02-25 08:32:19 51°10.079 2°37.67 16.6 39 3.4 100810 71
2004-02-25 08:32:24 51°10.074 2°37.638 17.4 39 3.4 100800 71
2004-02-25 08:32:28 51°10.07 2°37.613 17 41 3.4 100800 71
2004-02-25 08:32:34 51°10.064 2°37.576 16.8 40 3.4 100810 71
2004-02-25 08:32:39 51°10.058 2°37.545 16.6 39 3.4 100810 71
2004-02-25 08:32:44 51°10.053 2°37.514 16.2 41 3.4 100810 71
2004-02-25 08:32:50 51°10.047 2°37.476 16.8 36 3.4 100810 71
2004-02-25 08:32:54 51°10.043 2°37.451 16.1 37 3.4 100810 71
2004-02-25 08:32:59 51°10.037 2°37.42 18 36 3.4 100810 71
2004-02-25 08:33:04 51°10.033 2°37.389 15.5 33 3.4 100810 71
2004-02-25 08:33:10 51°10.026 2°37.353 16.9 35 3.4 100810 71
2004-02-25 08:33:14 51°10.022 2°37.328 16.9 32 3.5 100810 72
2004-02-25 08:33:19 51°10.016 2°37.297 15.9 35 3.5 100810 72
2004-02-25 08:33:24 51°10.012 2°37.266 16 30 3.5 100810 72
2004-02-25 08:33:28 51°10.007 2°37.241 16.8 33 3.5 100810 72
2004-02-25 08:33:34 51°10.001 2°37.204 18.4 35 3.5 100830 72
2004-02-25 08:33:39 51°9.997 2°37.172 15.7 34 3.5 100830 72
2004-02-25 08:33:44 51°9.991 2°37.142 17.7 34 3.5 100820 72
2004-02-25 08:33:48 51°9.988 2°37.117 17.4 30 3.5 100820 72
2004-02-25 08:33:54 51°9.984 2°37.079 18.2 32 3.5 100820 72
2004-02-25 08:33:58 51°9.982 2°37.054 18.6 32 3.5 100820 72
2004-02-25 08:34:04 51°9.978 2°37.016 17.2 30 3.5 100810 72
2004-02-25 08:34:08 51°9.977 2°36.991 17.2 32 3.5 100810 72
2004-02-25 08:34:14 51°9.975 2°36.953 16.1 30 3.5 100810 72
2004-02-25 08:34:19 51°9.973 2°36.921 16.8 34 3.5 100810 72
2004-02-25 08:34:24 51°9.972 2°36.889 16.2 30 3.4 100810 71
2004-02-25 08:34:30 51°9.972 2°36.851 16.9 34 3.4 100810 71
2004-02-25 08:34:34 51°9.972 2°36.826 17.4 31 3.4 100820 71
2004-02-25 08:34:38 51°9.972 2°36.801 15.6 28 3.4 100820 71
2004-02-25 08:34:44 51°9.973 2°36.763 16.7 32 3.4 100820 72
2004-02-25 08:34:48 51°9.974 2°36.737 17.8 30 3.4 100820 72
2004-02-25 08:34:54 51°9.975 2°36.699 17.1 29 3.4 100820 72
2004-02-25 08:34:58 51°9.976 2°36.674 15.9 30 3.4 100820 72
2004-02-25 08:35:04 51°9.977 2°36.636 17.4 29 3.4 100820 72
2004-02-25 08:35:10 51°9.979 2°36.598 15.7 26 3.4 100820 72
2004-02-25 08:35:14 51°9.98 2°36.573 15.8 26 3.4 100810 72
2004-02-25 08:35:18 51°9.981 2°36.547 15.9 27 3.4 100810 72
2004-02-25 08:35:24 51°9.982 2°36.509 15.9 28 3.4 100820 72
2004-02-25 08:35:28 51°9.983 2°36.483 15 29 3.4 100820 72
2004-02-25 08:35:34 51°9.985 2°36.445 16.3 25 3.4 100820 73
2004-02-25 08:35:40 51°9.987 2°36.407 17.3 25 3.4 100820 73
2004-02-25 08:35:44 51°9.988 2°36.381 16.8 28 3.4 100830 73
2004-02-25 08:35:49 51°9.988 2°36.35 16.8 26 3.4 100830 73
2004-02-25 08:35:54 51°9.989 2°36.318 16.7 22 3.5 100830 73
2004-02-25 08:35:59 51°9.99 2°36.286 16.9 26 3.5 100830 73
2004-02-25 08:36:04 51°9.991 2°36.254 16.2 25 3.4 100830 73
2004-02-25 08:36:10 51°9.992 2°36.216 15.9 19 3.4 100830 73
2004-02-25 08:36:14 51°9.993 2°36.19 18 19 3.4 100830 73
2004-02-25 08:36:18 51°9.996 2°36.165 18 19 3.4 100830 73
2004-02-25 08:36:24 51°10.001 2°36.129 17.8 16 3.4 100830 73
2004-02-25 08:36:30 51°10.007 2°36.093 17.9 14 3.4 100830 73
2004-02-25 08:36:34 51°10.012 2°36.069 17.8 10 3.4 100830 73
2004-02-25 08:36:39 51°10.019 2°36.04 15.8 12 3.4 100830 73
2004-02-25 08:36:44 51°10.027 2°36.012 17.2 11 3.4 100840 73
2004-02-25 08:36:48 51°10.034 2°35.99 16.9 5 3.4 100840 73
2004-02-25 08:36:54 51°10.045 2°35.958 16.8 5 3.4 100840 72
2004-02-25 08:36:59 51°10.055 2°35.931 15.7 4 3.4 100840 72
2004-02-25 08:37:04 51°10.066 2°35.906 17.4 2 3.4 100840 72
2004-02-25 08:37:10 51°10.081 2°35.878 17.1   3.4 100840 72
2004-02-25 08:37:14 51°10.091 2°35.86 16.8 356 3.4 100840 72
2004-02-25 08:37:19 51°10.104 2°35.839 16.8 351 3.4 100840 72
2004-02-25 08:37:24 51°10.118 2°35.819 16.3 353 3.4 100850 72
2004-02-25 08:37:28 51°10.13 2°35.805 15.8 351 3.4 100850 72
2004-02-25 08:37:34 51°10.148 2°35.785 17 348 3.3 100850 72
2004-02-25 08:37:39 51°10.164 2°35.77 16.1 346 3.3 100850 72
2004-02-25 08:37:44 51°10.18 2°35.758 16.6 344 3.3 100840 72
2004-02-25 08:37:50 51°10.2 2°35.744 17.5 340 3.3 100840 72
2004-02-25 08:37:54 51°10.213 2°35.735 16.3 339 3.3 100840 72
2004-02-25 08:37:58 51°10.227 2°35.727 16.8 339 3.3 100840 72
2004-02-25 08:38:04 51°10.246 2°35.715 16.2 340 3.3 100820 72
2004-02-25 08:38:08 51°10.26 2°35.708 15.8 343 3.3 100820 72
2004-02-25 08:38:14 51°10.281 2°35.7 16.4 337 3.3 100830 72
2004-02-25 08:38:19 51°10.299 2°35.694 17.4 341 3.3 100830 72
2004-02-25 08:38:24 51°10.316 2°35.69 16.7 337 3.4 100830 73
2004-02-25 08:38:30 51°10.337 2°35.685 17.7 333 3.4 100830 73
2004-02-25 08:38:34 51°10.351 2°35.684 18.6 338 3.4 100830 73
2004-02-25 08:38:39 51°10.369 2°35.684 17.8 331 3.4 100830 73
2004-02-25 08:38:44 51°10.387 2°35.684 17 328 3.4 100820 73
2004-02-25 08:38:48 51°10.401 2°35.685 18.5 326 3.4 100820 73
2004-02-25 08:38:54 51°10.422 2°35.688 16.5 323 3.4 100830 73
2004-02-25 08:38:58 51°10.436 2°35.691 17.6 324 3.4 100830 73
2004-02-25 08:39:04 51°10.456 2°35.697 17.9 321 3.4 100810 73
2004-02-25 08:39:08 51°10.47 2°35.702 15.2 319 3.4 100810 73
2004-02-25 08:39:14 51°10.49 2°35.71 15.4 321 3.4 100800 73
2004-02-25 08:39:19 51°10.507 2°35.717 16.6 321 3.4 100800 73
2004-02-25 08:39:24 51°10.524 2°35.725 16.9 317 3.4 100810 73
2004-02-25 08:39:28 51°10.537 2°35.731 16.7 323 3.4 100810 73
2004-02-25 08:39:34 51°10.557 2°35.741 16.4 322 3.4 100810 73
2004-02-25 08:39:39 51°10.574 2°35.748 16.2 318 3.4 100810 73
2004-02-25 08:39:44 51°10.591 2°35.757 15.5 317 3.4 100820 73
2004-02-25 08:39:48 51°10.604 2°35.765 15.2 317 3.4 100820 73
2004-02-25 08:39:54 51°10.623 2°35.777 15.5 227 3.4 100820 73
2004-02-25 08:39:58 51°10.636 2°35.787 15.7 40 3.4 100820 73
2004-02-25 08:40:04 51°10.655 2°35.801 15.6 42 3.3 100810 73
2004-02-25 08:40:09 51°10.671 2°35.813 14.7 42 3.3 100810 73
2004-02-25 08:40:14 51°10.687 2°35.826 14.4 229 3.3 100820 73
2004-02-25 08:40:19 51°10.703 2°35.837 12.8 316 3.3 100820 73
2004-02-25 08:40:24 51°10.718 2°35.85 12.6 314 3.3 100820 73
2004-02-25 08:40:30 51°10.736 2°35.865 13 227 3.3 100820 73
2004-02-25 08:40:34 51°10.749 2°35.874 13 315 3.3 100830 73
2004-02-25 08:40:39 51°10.764 2°35.888 12.5 230 3.3 100830 73
2004-02-25 08:40:44 51°10.78 2°35.899 12.8 314 3.2 100840 72
2004-02-25 08:40:50 51°10.799 2°35.914 12.5 229 3.2 100840 72
2004-02-25 08:40:54 51°10.811 2°35.924 12.6 315 3.2 100840 72
2004-02-25 08:40:59 51°10.827 2°35.937 14.2 313 3.2 100840 72
2004-02-25 08:41:04 51°10.842 2°35.949 12.4 310 3.2 100840 72
2004-02-25 08:41:08 51°10.855 2°35.96 13.7 317 3.2 100840 72
2004-02-25 08:41:14 51°10.873 2°35.976 13 311 3.2 100840 72
2004-02-25 08:41:19 51°10.888 2°35.99 13 312 3.2 100840 72
2004-02-25 08:41:24 51°10.903 2°36.004 14.7 309 3.2 100840 73
2004-02-25 08:41:30 51°10.921 2°36.022 13.5 305 3.2 100840 73
2004-02-25 08:41:34 51°10.933 2°36.033 10.9 309 3.2 100830 73
2004-02-25 08:41:39 51°10.948 2°36.049 12.7 306 3.2 100830 73
2004-02-25 08:41:44 51°10.963 2°36.063 12.1 307 3.2 100840 73
2004-02-25 08:41:48 51°10.974 2°36.076 12.3 309 3.2 100840 73
2004-02-25 08:41:54 51°10.992 2°36.093 11.6 313 3.2 100820 73
2004-02-25 08:41:59 51°11.007 2°36.108 12.1 310 3.2 100820 73
2004-02-25 08:42:04 51°11.022 2°36.122 12.2 312 3.2 100840 73
2004-02-25 08:42:10 51°11.04 2°36.14 12.1 301 3.2 100840 73
2004-02-25 08:42:14 51°11.052 2°36.152 10.5 308 3.2 100830 73
2004-02-25 08:42:18 51°11.064 2°36.165 10.3 311 3.2 100830 73
2004-02-25 08:42:24 51°11.082 2°36.182 10.7 311 3.2 100840 73
2004-02-25 08:42:28 51°11.093 2°36.194 12.9 312 3.2 100840 73
2004-02-25 08:42:34 51°11.111 2°36.211 13.1 308 3.2 100840 73
2004-02-25 08:42:39 51°11.126 2°36.225 13.5 309 3.2 100840 73
2004-02-25 08:42:44 51°11.141 2°36.24 11.4 311 3.2 100840 73
2004-02-25 08:42:48 51°11.153 2°36.251 12.1 306 3.2 100840 73
2004-02-25 08:42:54 51°11.17 2°36.268 11.9 305 3.2 100840 73
2004-02-25 08:42:59 51°11.185 2°36.283 11.9 43 3.2 100840 73
2004-02-25 08:43:04 51°11.2 2°36.297 11.3 313 3.1 100830 73
2004-02-25 08:43:08 51°11.212 2°36.309 12.5 307 3.1 100830 73
2004-02-25 08:43:14 51°11.23 2°36.327 13.6 307 3.2 100830 73
2004-02-25 08:43:20 51°11.248 2°36.344 12.5 303 3.2 100830 73
2004-02-25 08:43:24 51°11.26 2°36.355 12.6 307 3.2 100840 73
2004-02-25 08:43:29 51°11.275 2°36.37 13.1 301 3.2 100840 73
2004-02-25 08:43:34 51°11.289 2°36.384 12.6 313 3.2 100840 73
2004-02-25 08:43:38 51°11.301 2°36.396 13.4 308 3.2 100840 73
2004-02-25 08:43:44 51°11.318 2°36.413 13.1 308 3.2 100830 73
2004-02-25 08:43:50 51°11.336 2°36.431 13.1 312 3.2 100830 73
2004-02-25 08:43:54 51°11.348 2°36.442 13.9 304 3.2 100830 74
2004-02-25 08:43:59 51°11.362 2°36.457 12.8 306 3.2 100830 74
2004-02-25 08:44:04 51°11.378 2°36.47 13.3 309 3.2 100840 74
2004-02-25 08:44:10 51°11.395 2°36.488 12.5 305 3.2 100840 74
2004-02-25 08:44:14 51°11.407 2°36.5 11.5 310 3.2 100830 74
2004-02-25 08:44:19 51°11.422 2°36.514 12.5 308 3.2 100830 74
2004-02-25 08:44:24 51°11.437 2°36.529 13.4 304 3.2 100830 74
2004-02-25 08:44:28 51°11.449 2°36.54 14 305 3.2 100830 74
2004-02-25 08:44:34 51°11.467 2°36.558 13.8 308 3.2 100820 73
2004-02-25 08:44:39 51°11.481 2°36.572 12.9 315 3.2 100820 73
2004-02-25 08:44:44 51°11.496 2°36.587 14.2 310 3.2 100830 73
2004-02-25 08:44:50 51°11.514 2°36.604 13 307 3.2 100830 73
2004-02-25 08:44:54 51°11.525 2°36.617 15.3 305 3.2 100830 73
2004-02-25 08:44:59 51°11.54 2°36.631 13.8 305 3.2 100830 73
2004-02-25 08:45:04 51°11.555 2°36.646 14.3 311 3.2 100830 74
2004-02-25 08:45:09 51°11.57 2°36.661 11.8 315 3.2 100830 74
2004-02-25 08:45:14 51°11.585 2°36.675 13.8 312 3.2 100820 74
2004-02-25 08:45:18 51°11.597 2°36.687 13.1 307 3.2 100820 74
2004-02-25 08:45:24 51°11.614 2°36.705 13 306 3.2 100820 73
2004-02-25 08:45:30 51°11.632 2°36.723 12.9 316 3.2 100820 73
2004-02-25 08:45:34 51°11.644 2°36.735 12.4 311 3.2 100840 73
2004-02-25 08:45:39 51°11.659 2°36.75 12.8 228 3.2 100840 73
2004-02-25 08:45:44 51°11.674 2°36.765 14.8 315 3.2 100840 73
2004-02-25 08:45:50 51°11.691 2°36.782 14.6 314 3.2 100840 73
2004-02-25 08:45:54 51°11.703 2°36.794 14.4 313 3.2 100820 73
2004-02-25 08:45:59 51°11.718 2°36.808 13.9 309 3.2 100820 73
2004-02-25 08:46:04 51°11.733 2°36.824 14.2 309 3.3 100830 74
2004-02-25 08:46:10 51°11.751 2°36.84 13.1 226 3.3 100830 74
2004-02-25 08:46:14 51°11.762 2°36.853 15.2 311 3.3 100820 74
2004-02-25 08:46:19 51°11.778 2°36.867 14.5 304 3.3 100820 74
2004-02-25 08:46:24 51°11.793 2°36.881 15.9 309 3.3 100820 74
2004-02-25 08:46:30 51°11.811 2°36.899 15.5 311 3.3 100820 74
2004-02-25 08:46:34 51°11.823 2°36.91 15.1 311 3.3 100820 73
2004-02-25 08:46:39 51°11.838 2°36.925 14.1 310 3.3 100820 73
2004-02-25 08:46:44 51°11.852 2°36.94 14.7 308 3.3 100820 73
2004-02-25 08:46:50 51°11.87 2°36.957 14 305 3.3 100820 73
2004-02-25 08:46:54 51°11.881 2°36.969 14.4 313 3.3 100820 74
2004-02-25 08:46:59 51°11.896 2°36.983 13.8 311 3.3 100820 74
2004-02-25 08:47:04 51°11.911 2°36.998 13.8 304 3.3 100820 74
2004-02-25 08:47:10 51°11.929 2°37.015 12.5 314 3.3 100820 74
2004-02-25 08:47:14 51°11.94 2°37.026 12.5 41 3.3 100820 74
2004-02-25 08:47:19 51°11.955 2°37.041 15.8 234 3.3 100820 74
2004-02-25 08:47:24 51°11.97 2°37.055 14.5 313 3.3 100830 74
2004-02-25 08:47:28 51°11.982 2°37.067 13.3 229 3.3 100830 74
2004-02-25 08:47:34 51°12 2°37.084 13.9 316 3.3 100820 74
2004-02-25 08:47:39 51°12.014 2°37.099 15 228 3.3 100820 74
2004-02-25 08:47:44 51°12.029 2°37.113 14.2 312 3.3 100830 74
2004-02-25 08:47:50 51°12.047 2°37.13 14.5 309 3.3 100830 74
2004-02-25 08:47:54 51°12.059 2°37.141 15.1 310 3.4 100830 74
2004-02-25 08:47:58 51°12.071 2°37.153 13.9 40 3.4 100830 74
2004-02-25 08:48:04 51°12.089 2°37.17 13.9 315 3.4 100830 74
2004-02-25 08:48:08 51°12.1 2°37.181 14.3 311 3.4 100830 74
2004-02-25 08:48:14 51°12.118 2°37.199 13.7 312 3.3 100820 74
2004-02-25 08:48:19 51°12.132 2°37.213 15.1 317 3.3 100820 74
2004-02-25 08:48:24 51°12.147 2°37.228 16.9 227 3.4 100820 74
2004-02-25 08:48:30 51°12.165 2°37.245 14 311 3.4 100820 74
2004-02-25 08:48:34 51°12.176 2°37.257 13.9 310 3.4 100830 74
2004-02-25 08:48:39 51°12.191 2°37.271 15.2 312 3.4 100830 74
2004-02-25 08:48:44 51°12.206 2°37.286 15 227 3.3 100820 74
2004-02-25 08:48:50 51°12.223 2°37.303 14.4 43 3.3 100820 74
2004-02-25 08:48:54 51°12.235 2°37.314 14.2 37 3.3 100820 74
2004-02-25 08:48:59 51°12.249 2°37.329 13.9 314 3.3 100820 74
2004-02-25 08:49:04 51°12.264 2°37.343 12.1 313 3.3 100810 74
2004-02-25 08:49:10 51°12.281 2°37.36 13.2 312 3.3 100810 74
2004-02-25 08:49:14 51°12.293 2°37.372 12.3 312 3.3 100820 74
2004-02-25 08:49:19 51°12.307 2°37.386 12.8 228 3.3 100820 74
2004-02-25 08:49:24 51°12.322 2°37.4 13.8 313 3.3 100830 74
2004-02-25 08:49:30 51°12.339 2°37.417 12.5 314 3.3 100830 74
2004-02-25 08:49:34 51°12.351 2°37.429 13.3 310 3.3 100820 74
2004-02-25 08:49:39 51°12.366 2°37.442 13.9 312 3.3 100820 74
2004-02-25 08:49:44 51°12.381 2°37.456 13.8 316 3.3 100820 74
2004-02-25 08:49:49 51°12.396 2°37.471 13.6 314 3.3 100820 74
2004-02-25 08:49:54 51°12.41 2°37.485 12.3 317 3.3 100820 74
2004-02-25 08:49:59 51°12.424 2°37.499 15.4 229 3.3 100820 74
2004-02-25 08:50:04 51°12.439 2°37.514 14.5 313 3.3 100820 74
2004-02-25 08:50:08 51°12.451 2°37.526 16.4 320 3.3 100820 74
2004-02-25 08:50:14 51°12.468 2°37.542 14.9 316 3.3 100840 74
2004-02-25 08:50:19 51°12.483 2°37.557 13.3 319 3.3 100840 74
2004-02-25 08:50:24 51°12.497 2°37.57 14.7 316 3.3 100820 74
2004-02-25 08:50:28 51°12.509 2°37.582 14.7 319 3.3 100820 74
2004-02-25 08:50:34 51°12.526 2°37.599 16.4 40 3.3 100820 74
2004-02-25 08:50:39 51°12.541 2°37.613 14.5 316 3.3 100820 74
2004-02-25 08:50:44 51°12.555 2°37.628 13.8 44 3.3 100810 74
2004-02-25 08:50:49 51°12.57 2°37.641 15.5 229 3.3 100810 74
2004-02-25 08:50:54 51°12.585 2°37.655 13.1 315 3.3 100820 74
2004-02-25 08:50:59 51°12.6 2°37.668 14.1 321 3.3 100820 74
2004-02-25 08:51:04 51°12.615 2°37.682 16.6 316 3.3 100820 74
2004-02-25 08:51:10 51°12.633 2°37.699 13.5 40 3.3 100820 74
2004-02-25 08:51:14 51°12.645 2°37.71 14.5 316 3.3 100830 74
2004-02-25 08:51:19 51°12.66 2°37.723 13.3 39 3.3 100830 74
2004-02-25 08:51:24 51°12.675 2°37.737 14.2 316 3.3 100810 74
2004-02-25 08:51:28 51°12.688 2°37.746 14.1 228 3.3 100810 74
2004-02-25 08:51:34 51°12.706 2°37.763 12.6 322 3.3 100810 74
2004-02-25 08:51:38 51°12.718 2°37.773 13 319 3.3 100810 74
2004-02-25 08:51:44 51°12.736 2°37.789 14.4 315 3.3 100800 74
2004-02-25 08:51:50 51°12.755 2°37.805 13.6 42 3.3 100800 74
2004-02-25 08:51:54 51°12.767 2°37.817 14.7 315 3.3 100800 74
2004-02-25 08:51:58 51°12.779 2°37.827 14.9 320 3.3 100800 74
2004-02-25 08:52:04 51°12.796 2°37.845 14 327 3.3 100820 74
2004-02-25 08:52:09 51°12.81 2°37.859 13.3 322 3.3 100820 74
2004-02-25 08:52:14 51°12.825 2°37.874 12.8 324 3.2 100810 74
2004-02-25 08:52:19 51°12.84 2°37.888 15.7 322 3.2 100810 74
2004-02-25 08:52:24 51°12.855 2°37.902 13.1 328 3.3 100810 74
2004-02-25 08:52:28 51°12.867 2°37.914 14.3 326 3.3 100810 74
2004-02-25 08:52:34 51°12.885 2°37.93 14.9 326 3.3 100820 75
2004-02-25 08:52:39 51°12.9 2°37.944 13.7 325 3.3 100820 75
2004-02-25 08:52:44 51°12.913 2°37.959 13.4 318 3.3 100810 75
2004-02-25 08:52:48 51°12.925 2°37.97 14.8 325 3.3 100810 75
2004-02-25 08:52:54 51°12.942 2°37.987 14.4 323 3.3 100810 75
2004-02-25 08:52:59 51°12.957 2°38.001 13.7 324 3.3 100810 75
2004-02-25 08:53:04 51°12.971 2°38.015 13.5 327 3.3 100810 75
2004-02-25 08:53:08 51°12.983 2°38.027 14.1 38 3.3 100810 75
2004-02-25 08:53:14 51°13.001 2°38.044 12.8 317 3.2 100810 75
2004-02-25 08:53:18 51°13.012 2°38.055 14.1 320 3.2 100810 75
2004-02-25 08:53:24 51°13.03 2°38.072 13.5 319 3.2 100820 75
2004-02-25 08:53:29 51°13.044 2°38.086 12.4 321 3.2 100820 75
2004-02-25 08:53:34 51°13.06 2°38.1 11.9 318 3.2 100810 75
2004-02-25 08:53:39 51°13.074 2°38.113 16.3 318 3.2 100810 75
2004-02-25 08:53:44 51°13.088 2°38.129 15.3 310 3.2 100800 75
2004-02-25 08:53:48 51°13.101 2°38.138 14.4 313 3.2 100800 75
2004-02-25 08:53:54 51°13.119 2°38.156 15 309 3.2 100810 75
2004-02-25 08:53:58 51°13.131 2°38.167 13 228 3.2 100810 75